Location: ????????
(37.6846°N, 24.0673°E)
Time: 15:04:56
(UTC+00:00)

Cosmos 1954 Rocket - Pass Details

Date: 14 July 2020
Orbit: 751 x 782 km, 74.0° (Epoch: 04 August)

Event Time Altitude Azimuth Distance (km) Brightness Sun altitude
Exits shadow 00:28:04 67° 177° (S) 838 3.9 -24.5°
Maximum altitude 00:28:46 82° 107° (ESE) 785 3.9 -24.4°
Drops below altitude 10° 00:34:05 10° 20° (NNE) 2,333 7.5 -23.9°
Sets 00:36:29 0° 20° (NNE) 3,267 8.6 -23.6°
